Location: Newark
(51.2625°N, 13.3939°E)
Time: 03:05:30
(UTC+00:00)

Explorer 7 - Pass Details

Date: 17 November 2019
Orbit: 485 x 680 km, 50.3° (Epoch: 08 December)

Event Time Altitude Azimuth Distance (km) Brightness Sun altitude
Rises 05:37:22 0° 282° (WNW) 2,723 - -7.7°
Exits shadow 05:39:30 - 273° (W) 1,940 9.0 -7.4°
Reaches altitude 10° 05:39:57 10° 269° (W) 1,790 8.9 -7.4°
Maximum altitude 05:43:15 25° 214° (SW) 1,085 8.2 -6.9°
Drops below altitude 10° 05:46:26 10° 159° (SSE) 1,708 10.0 -6.4°
Sets 05:48:50 0° 145° (SE) 2,567 11.3 -6.1°
